weather.gov     
National Weather Service

Terminal Aerodrome Forecast
NWS Homepage
This page is being discontinued on March 12, 2014.
The same data is available at this site. Please update your bookmarks.
Thank you, and we apologize for the inconvenience.
Please send an email to SR-SRH.Webmaster@noaa.gov with any concerns.


Current Version
Previous Version:    01  02  03  04  05  06  07  08  09  10  11  12  13  14  
[Printable]
631
FTUS41 KBOX 202320
TAFHYA
TAF
KHYA 202320Z 2100/2124 19009KT P6SM SCT250
     FM210600 19008KT P6SM BKN050
     FM210900 18009KT P6SM BKN015
     FM211200 17008KT 3SM BR BKN008
     FM211400 17009KT 3SM -SHRA BR BKN008
     FM211600 17009KT 3SM BR OVC008=


631
FTUS41 KBOX 202320
TAFHYA
TAF
KHYA 202320Z 2100/2124 19009KT P6SM SCT250
     FM210600 19008KT P6SM BKN050
     FM210900 18009KT P6SM BKN015
     FM211200 17008KT 3SM BR BKN008
     FM211400 17009KT 3SM -SHRA BR BKN008
     FM211600 17009KT 3SM BR OVC008=




U.S. Dept. of Commerce
NOAA National Weather Service
1325 East West Highway
Silver Spring, MD 20910
E-mail: w-nws.webmaster@noaa.gov
Page last modified: May 16, 2007
NATIONAL WEATHER SERVICE: for Safety, for Work, for Fun - FOR LIFE